TimeEST,TemperatureF,Dew PointF,Humidity,Sea Level PressureIn,VisibilityMPH,Wind Direction,Wind SpeedMPH,Gust SpeedMPH,PrecipitationIn,Events,Conditions,WindDirDegrees,DateUTC
12:15 AM,32.9,18.0,54,30.27,10.0,NW,4.6,-,N/A,,Clear,310,2013-11-24 05:15:00
12:35 AM,32.9,17.6,53,30.27,10.0,Calm,Calm,-,N/A,,Clear,0,2013-11-24 05:35:00
12:55 AM,32.0,17.6,55,30.27,10.0,WNW,6.9,-,N/A,,Clear,290,2013-11-24 05:55:00
1:15 AM,32.0,17.4,55,30.26,10.0,WNW,6.9,16.1,N/A,,Clear,300,2013-11-24 06:15:00
1:35 AM,31.5,16.5,54,30.27,10.0,NW,3.5,-,N/A,,Clear,310,2013-11-24 06:35:00
1:55 AM,31.3,14.9,51,30.28,10.0,NNW,8.1,-,N/A,,Clear,340,2013-11-24 06:55:00
2:15 AM,30.2,14.9,53,30.29,10.0,WNW,10.4,17.3,N/A,,Clear,300,2013-11-24 07:15:00
2:35 AM,29.5,14.9,55,30.29,10.0,WNW,8.1,-,N/A,,Clear,290,2013-11-24 07:35:00
2:55 AM,28.9,14.4,55,30.30,10.0,WNW,6.9,-,N/A,,Clear,290,2013-11-24 07:55:00
3:15 AM,28.2,13.1,53,30.30,10.0,WNW,9.2,-,N/A,,Clear,290,2013-11-24 08:15:00
3:35 AM,28.0,12.0,51,30.30,10.0,WNW,9.2,-,N/A,,Clear,300,2013-11-24 08:35:00
3:55 AM,27.5,11.7,51,30.30,10.0,WNW,8.1,-,N/A,,Clear,300,2013-11-24 08:55:00
4:15 AM,27.1,10.8,50,30.31,10.0,WNW,8.1,-,N/A,,Clear,290,2013-11-24 09:15:00
4:35 AM,26.6,10.2,50,30.31,10.0,WNW,8.1,-,N/A,,Clear,290,2013-11-24 09:35:00
4:55 AM,26.6,9.5,49,30.32,10.0,West,8.1,-,N/A,,Clear,280,2013-11-24 09:55:00
5:15 AM,26.2,9.3,49,30.33,10.0,WNW,8.1,-,N/A,,Clear,300,2013-11-24 10:15:00
5:35 AM,25.7,9.1,50,30.33,10.0,WNW,6.9,-,N/A,,Clear,290,2013-11-24 10:35:00
5:55 AM,25.7,8.8,49,30.34,10.0,NW,12.7,17.3,N/A,,Clear,320,2013-11-24 10:55:00
6:15 AM,25.3,9.3,51,30.34,10.0,WNW,9.2,17.3,N/A,,Clear,300,2013-11-24 11:15:00
6:35 AM,25.0,9.0,51,30.35,10.0,NW,10.4,-,N/A,,Clear,310,2013-11-24 11:35:00
6:55 AM,24.8,8.6,50,30.36,10.0,NW,9.2,-,N/A,,Clear,310,2013-11-24 11:55:00
7:15 AM,24.6,8.4,50,30.37,10.0,NW,10.4,-,N/A,,Clear,310,2013-11-24 12:15:00
7:35 AM,24.4,8.4,51,30.38,10.0,NW,5.8,-,N/A,,Clear,320,2013-11-24 12:35:00
7:55 AM,24.8,8.1,49,30.38,10.0,NW,5.8,-,N/A,,Clear,310,2013-11-24 12:55:00
8:15 AM,26.4,7.2,44,30.39,10.0,NW,5.8,-,N/A,,Clear,310,2013-11-24 13:15:00
8:35 AM,28.0,5.9,39,30.40,10.0,NW,8.1,-,N/A,,Clear,310,2013-11-24 13:35:00
8:55 AM,28.9,5.2,37,30.41,10.0,WNW,5.8,-,N/A,,Clear,290,2013-11-24 13:55:00
9:15 AM,30.0,3.7,33,30.42,10.0,WNW,6.9,-,N/A,,Clear,300,2013-11-24 14:15:00
9:35 AM,31.1,3.0,30,30.42,10.0,WNW,5.8,-,N/A,,Clear,290,2013-11-24 14:35:00
9:55 AM,32.0,3.0,29,30.42,10.0,NW,8.1,-,N/A,,Clear,320,2013-11-24 14:55:00
10:15 AM,32.9,1.6,27,30.43,10.0,WNW,6.9,-,N/A,,Clear,300,2013-11-24 15:15:00
10:35 AM,34.2,1.4,25,30.42,10.0,NNW,8.1,-,N/A,,Clear,330,2013-11-24 15:35:00
10:55 AM,35.1,-0.4,22,30.42,10.0,Calm,Calm,-,N/A,,Clear,0,2013-11-24 15:55:00
11:15 AM,36.1,1.9,24,30.41,10.0,Calm,Calm,-,N/A,,Clear,0,2013-11-24 16:15:00
11:35 AM,37.4,-1.5,19,30.40,10.0,NW,4.6,-,N/A,,Clear,310,2013-11-24 16:35:00
11:55 AM,38.3,-2.4,18,30.39,10.0,Calm,Calm,-,N/A,,Clear,0,2013-11-24 16:55:00
12:15 PM,39.4,-1.8,18,30.38,10.0,NW,4.6,-,N/A,,Clear,310,2013-11-24 17:15:00
12:35 PM,40.6,-3.5,16,30.37,10.0,NNW,4.6,-,N/A,,Clear,340,2013-11-24 17:35:00
12:55 PM,41.5,-4.4,14,30.36,10.0,North,3.5,-,N/A,,Clear,360,2013-11-24 17:55:00
1:15 PM,41.9,-6.0,13,30.35,10.0,West,3.5,-,N/A,,Clear,270,2013-11-24 18:15:00
1:35 PM,43.3,-3.3,14,30.35,10.0,West,8.1,-,N/A,,Clear,270,2013-11-24 18:35:00
1:55 PM,43.5,-4.5,13,30.34,10.0,West,10.4,-,N/A,,Clear,270,2013-11-24 18:55:00
2:15 PM,43.3,-6.0,12,30.33,10.0,West,6.9,-,N/A,,Clear,270,2013-11-24 19:15:00
2:35 PM,43.5,-7.4,12,30.32,10.0,Calm,Calm,-,N/A,,Clear,0,2013-11-24 19:35:00
2:55 PM,43.9,-5.8,12,30.32,10.0,West,5.8,-,N/A,,Clear,270,2013-11-24 19:55:00
3:15 PM,44.1,-7.8,11,30.32,10.0,Calm,Calm,-,N/A,,Clear,0,2013-11-24 20:15:00
3:35 PM,44.1,-8.1,11,30.32,10.0,Calm,Calm,-,N/A,,Clear,0,2013-11-24 20:35:00
3:55 PM,44.1,-8.3,11,30.33,10.0,Calm,Calm,-,N/A,,Clear,0,2013-11-24 20:55:00
4:15 PM,44.1,-3.6,14,30.33,10.0,Calm,Calm,-,N/A,,Clear,0,2013-11-24 21:15:00
4:35 PM,43.0,-5.8,13,30.33,10.0,Calm,Calm,-,N/A,,Clear,0,2013-11-24 21:35:00
4:55 PM,38.1,13.5,36,30.33,10.0,WSW,3.5,-,N/A,,Clear,250,2013-11-24 21:55:00
5:15 PM,33.3,15.1,47,30.34,10.0,WSW,4.6,-,N/A,,Clear,240,2013-11-24 22:15:00
5:35 PM,31.6,16.3,53,30.35,10.0,Calm,Calm,-,N/A,,Clear,0,2013-11-24 22:35:00
5:55 PM,30.2,16.2,56,30.35,10.0,Calm,Calm,-,N/A,,Clear,0,2013-11-24 22:55:00
6:15 PM,28.6,18.0,64,30.37,10.0,Calm,Calm,-,N/A,,Clear,0,2013-11-24 23:15:00
6:35 PM,29.8,14.9,54,30.39,10.0,Calm,Calm,-,N/A,,Clear,0,2013-11-24 23:35:00
6:55 PM,27.7,16.2,62,30.40,10.0,SW,3.5,-,N/A,,Clear,230,2013-11-24 23:55:00
7:15 PM,27.0,16.2,64,30.41,10.0,Calm,Calm,-,N/A,,Clear,0,2013-11-25 00:15:00
7:35 PM,25.5,18.7,75,30.42,10.0,Calm,Calm,-,N/A,,Clear,0,2013-11-25 00:35:00
7:55 PM,25.5,18.5,75,30.42,10.0,Calm,Calm,-,N/A,,Clear,0,2013-11-25 00:55:00
8:15 PM,25.2,16.5,70,30.42,10.0,Calm,Calm,-,N/A,,Clear,0,2013-11-25 01:15:00
8:35 PM,24.3,17.4,75,30.42,10.0,Calm,Calm,-,N/A,,Clear,0,2013-11-25 01:35:00
8:55 PM,23.4,18.1,80,30.42,10.0,Calm,Calm,-,N/A,,Clear,0,2013-11-25 01:55:00
9:15 PM,22.6,17.4,80,30.42,10.0,Calm,Calm,-,N/A,,Clear,0,2013-11-25 02:15:00
9:35 PM,22.1,17.1,81,30.42,10.0,Calm,Calm,-,N/A,,Clear,0,2013-11-25 02:35:00
9:55 PM,22.3,17.6,82,30.42,10.0,Calm,Calm,-,N/A,,Clear,0,2013-11-25 02:55:00
10:15 PM,22.1,17.6,83,30.42,10.0,Calm,Calm,-,N/A,,Clear,0,2013-11-25 03:15:00
10:35 PM,22.6,18.0,82,30.42,10.0,Calm,Calm,-,N/A,,Clear,0,2013-11-25 03:35:00
10:55 PM,22.1,18.0,84,30.42,10.0,Calm,Calm,-,N/A,,Clear,0,2013-11-25 03:55:00
11:15 PM,23.0,18.3,82,30.44,10.0,Calm,Calm,-,N/A,,Clear,0,2013-11-25 04:15:00
11:35 PM,23.2,19.4,85,30.44,10.0,Calm,Calm,-,N/A,,Clear,0,2013-11-25 04:35:00
11:55 PM,22.6,18.3,83,30.45,10.0,Calm,Calm,-,N/A,,Clear,0,2013-11-25 04:55:00